PST,Max TemperatureF,Mean TemperatureF,Min TemperatureF,Max Dew PointF,MeanDew PointF,Min DewpointF,Max Humidity, Mean Humidity, Min Humidity, Max Sea Level PressureIn, Mean Sea Level PressureIn, Min Sea Level PressureIn, Max VisibilityMiles, Mean VisibilityMiles, Min VisibilityMiles, Max Wind SpeedMPH, Mean Wind SpeedMPH, Max Gust SpeedMPH,PrecipitationIn, CloudCover, Events, WindDirDegrees
2012-12-1,67,63,59,61,59,57,97,85,73,30.18,30.11,30.09,10,8,2,7,0,12,0.03,8,Rain,270
2012-12-2,66,63,59,61,58,55,97,83,68,30.14,30.10,30.06,10,8,2,7,0,12,0.08,8,Rain,263
2012-12-3,69,63,57,61,58,54,97,82,66,30.19,30.13,30.10,10,7,2,10,2,14,0.19,6,Rain,92
2012-12-4,68,62,55,56,55,53,93,78,63,30.25,30.18,30.14,10,7,4,7,1,12,0.00,2,,335
2012-12-5,66,58,50,56,53,50,100,84,67,30.14,30.09,30.01,5,3,0,6,0,9,0.00,3,Fog,128
2012-12-6,68,61,54,55,53,52,93,76,58,30.02,29.95,29.87,5,4,2,7,1,13,0.00,4,,65
2012-12-7,68,60,51,55,53,50,100,82,63,29.99,29.93,29.91,4,2,0,6,1,8,0.00,1,Fog,260
2012-12-8,67,59,50,54,53,48,100,82,63,30.00,29.94,29.90,3,2,0,6,0,8,0.00,4,Fog,100
2012-12-9,68,61,53,54,52,48,93,73,52,30.12,30.03,29.97,3,2,2,6,1,10,0.00,4,,273
2012-12-10,74,62,49,55,46,32,93,59,25,30.13,30.09,30.04,10,6,2,6,0,9,0.00,0,,-1
2012-12-11,72,60,48,55,48,37,93,61,29,30.05,29.99,29.94,10,8,5,5,1,8,0.00,2,,185
2012-12-12,62,59,55,54,50,45,86,71,55,29.96,29.89,29.84,10,8,5,8,2,12,0.04,8,Rain,119
2012-12-13,62,56,49,54,47,41,93,71,49,29.83,29.78,29.73,10,10,9,7,0,14,0.03,4,Rain,-1
2012-12-14,59,51,43,43,38,34,83,63,43,30.02,29.90,29.76,10,10,9,8,2,14,0.08,4,Rain,75
2012-12-15,62,54,45,43,38,27,89,59,28,30.09,30.02,29.99,10,10,9,10,1,14,T,4,Rain,295
2012-12-16,55,54,52,52,48,39,89,72,54,30.19,30.14,30.09,10,6,1,8,2,13,0.04,8,Rain,97
2012-12-17,64,60,55,54,51,47,93,75,56,30.18,30.09,30.01,10,10,8,7,1,12,0.00,8,,278
2012-12-18,63,58,53,55,51,22,93,61,28,30.00,29.91,29.80,10,6,2,10,4,23,0.43,7,Rain,290
2012-12-19,63,54,46,24,17,8,39,25,13,30.28,30.22,30.18,10,10,10,4,0,,0.00,0,,-1
2012-12-20,67,54,41,21,16,7,43,27,10,30.25,30.16,30.08,10,10,10,8,2,13,0.00,0,,16
2012-12-21,66,55,44,41,27,14,77,46,15,30.12,30.08,30.04,10,10,10,7,1,9,0.00,0,,337
2012-12-22,63,53,42,51,43,31,89,66,43,30.19,30.14,30.07,10,10,5,8,0,13,0.00,5,,115
2012-12-23,65,59,53,52,49,44,93,73,52,30.23,30.17,30.12,10,8,5,8,1,12,0.00,7,,280
2012-12-24,64,57,49,55,52,38,93,74,54,30.12,30.07,30.00,10,6,2,10,3,15,0.46,6,Rain,84
2012-12-25,62,55,47,52,45,33,93,65,36,30.11,30.06,29.99,10,7,2,6,1,9,0.00,3,,20
2012-12-26,63,56,49,52,46,35,100,73,46,30.01,29.95,29.90,10,5,1,10,2,18,0.33,6,Rain,101
2012-12-27,63,56,48,35,31,27,54,40,25,30.10,30.00,29.95,10,10,10,10,5,18,0.00,0,,318
2012-12-28,64,54,43,41,32,24,71,47,23,30.18,30.11,30.08,10,10,10,6,1,9,0.00,0,,330
2012-12-29,53,48,43,43,39,28,92,67,42,30.10,30.05,29.98,10,8,0,9,3,15,0.45,5,Rain,79
2012-12-30,59,49,39,40,35,31,89,66,43,30.07,29.99,29.92,10,10,10,9,1,16,0.00,2,,325
2012-12-31,60,50,39,41,36,29,85,59,33,30.25,30.18,30.08,10,10,7,6,1,14,0.00,0,,0